Theta_e
304 298 295 295 297 298 300 300 301 299 298 298 298 297 296 296 297 299 300 302 303 301 300 301 301 301 302 304 305 311 318 320 320 323 325 326 327 326 326 327 328 330 331 334 336 338 336 336 338 337 338 339 341 343 343 343 344 344 343 342 343 346 345 343 342 342 340 339 338 338 336 334 334 334 336 335 337 337 335 338 337 340 339 340 341 341
303 297 297 299 300 301 301 302 301 300 299 297 297 296 296 296 296 299 300 302 304 301 299 302 301 301 303 304 306 312 317 316 319 322 325 325 327 327 327 328 329 330 332 333 334 336 336 335 338 338 338 338 338 339 340 340 340 341 342 343 345 345 343 343 344 342 341 341 336 335 334 333 332 331 331 331 336 337 336 338 338 338 340 340 340 340
296 295 299 301 303 303 302 301 301 299 298 298 296 296 296 296 298 301 301 302 303 302 299 302 300 300 302 304 306 312 314 314 319 321 323 325 327 327 327 328 330 330 330 330 332 335 335 336 337 337 339 339 339 341 340 341 340 340 342 344 347 346 343 343 344 343 340 341 341 338 335 333 331 334 337 333 333 336 334 338 337 338 338 340 338 340
294 296 301 302 302 301 300 300 299 299 300 297 296 296 294 298 295 294 301 301 303 302 301 301 299 300 304 306 305 309 311 314 323 325 326 327 327 327 328 328 329 330 328 329 332 334 335 336 337 338 339 340 341 340 342 342 341 341 342 345 345 346 345 344 342 342 342 343 344 343 340 338 334 333 336 335 336 337 335 334 335 336 337 337 337 339
296 300 303 302 301 300 299 300 299 297 295 298 298 296 296 297 297 298 298 301 304 304 303 300 299 299 303 301 302 305 315 322 321 324 327 328 328 330 330 330 331 330 331 330 332 334 335 336 336 338 339 340 340 341 338 342 341 341 341 344 345 345 344 343 344 345 345 344 342 340 341 339 337 335 332 330 331 334 334 334 335 334 336 335 334 336
297 301 303 300 299 299 299 298 298 298 294 296 299 299 298 298 298 298 300 299 298 298 303 299 292 293 300 301 301 304 307 312 316 318 322 325 327 328 328 329 331 333 333 333 332 333 335 335 338 339 340 339 338 338 341 342 342 342 341 342 345 345 344 344 346 346 344 341 338 335 331 329 329 328 328 326 326 328 331 329 335 335 334 333 334 333
298 303 300 299 298 298 298 297 299 299 295 294 296 300 299 299 300 300 299 298 294 292 300 304 293 290 299 299 302 305 304 305 313 316 318 322 324 326 327 328 329 331 332 334 335 334 334 335 336 335 339 338 339 336 333 331 333 337 340 340 343 344 344 345 346 346 343 340 337 335 332 331 331 329 330 331 330 330 330 332 333 331 335 333 333 333
299 298 299 299 299 298 297 295 300 299 296 293 301 299 299 299 299 300 299 298 297 301 302 301 298 293 292 297 303 305 303 304 309 313 316 318 322 323 326 329 330 331 334 333 334 335 336 337 336 336 332 324 323 325 327 325 323 323 323 325 330 335 339 343 345 343 342 339 337 336 334 333 330 330 331 331 330 331 329 329 328 328 328 331 332 332
300 298 298 297 298 297 296 298 301 300 297 298 303 301 299 300 300 300 299 298 299 298 294 297 299 294 293 299 303 303 300 302 306 309 312 317 321 324 326 328 330 332 334 334 332 333 336 338 338 331 323 325 325 326 326 327 327 324 323 323 322 323 326 331 338 340 340 339 337 336 334 331 332 332 330 330 328 327 329 328 328 327 325 328 331 332
300 300 299 299 298 296 299 300 301 301 297 302 302 302 302 302 300 300 298 297 298 294 290 295 299 292 292 297 298 301 300 300 303 307 310 315 320 323 326 328 330 331 333 334 333 334 337 337 337 328 328 329 331 328 326 326 326 324 324 323 322 322 323 326 329 333 336 338 335 334 333 333 330 330 329 328 326 327 328 327 327 327 326 326 328 332
300 304 304 300 298 300 300 301 301 301 301 301 302 300 299 299 299 300 299 299 296 288 292 297 299 296 289 296 297 297 299 304 304 307 309 312 317 321 326 327 329 329 330 330 331 334 337 337 339 330 331 332 328 325 325 324 325 325 324 323 323 324 325 325 326 330 332 334 334 332 334 334 331 330 329 327 327 325 326 325 326 326 325 326 326 328
299 300 299 301 303 301 302 299 300 301 301 301 299 298 297 296 299 297 297 298 288 287 295 298 298 298 288 293 300 304 305 306 306 306 307 309 308 312 321 325 327 328 329 330 330 331 334 334 333 329 329 325 321 321 323 324 323 323 324 325 324 324 324 324 325 328 330 332 333 334 333 333 332 331 329 328 326 325 324 324 323 324 324 325 326 328
296 297 300 301 304 301 299 299 299 300 300 299 299 298 292 289 290 286 291 285 287 287 294 298 297 294 293 299 301 303 305 307 310 309 310 311 312 313 309 319 324 326 327 328 329 330 330 331 331 328 326 322 319 321 322 322 322 322 322 323 324 324 324 324 325 327 329 330 331 333 333 333 334 331 330 329 327 326 323 322 322 322 321 322 324 325
294 299 299 299 301 302 301 295 295 295 298 297 296 295 291 286 285 281 286 289 289 294 297 297 299 292 297 300 304 304 307 310 312 313 314 313 314 314 312 312 321 325 326 327 327 328 329 329 329 328 326 325 324 321 322 323 322 322 322 322 323 323 324 322 324 325 327 329 330 331 332 330 331 329 330 328 326 325 323 322 322 322 322 323 325 325
287 289 295 298 295 302 300 299 299 298 298 298 300 297 294 292 288 281 286 283 285 289 294 297 293 290 291 295 304 307 310 311 313 314 316 316 315 313 310 313 318 321 325 326 326 325 327 328 329 328 328 327 326 322 323 324 324 322 321 321 321 322 323 323 324 325 325 326 328 329 331 331 331 330 329 328 326 326 324 323 323 323 323 323 325 323
292 292 297 301 300 302 299 302 303 300 299 300 300 300 295 292 297 288 289 290 289 289 289 292 290 296 296 302 307 310 308 308 311 314 315 315 315 316 315 317 318 320 322 323 324 325 326 328 328 328 328 328 326 324 324 326 327 324 322 321 321 323 323 323 324 324 325 326 328 331 331 331 330 329 329 326 325 326 326 325 323 324 326 325 324 325
293 291 298 298 300 300 301 302 301 302 290 297 298 293 296 302 298 291 290 296 288 289 287 293 294 296 301 301 304 306 306 306 308 312 313 314 315 317 316 317 318 320 321 323 323 324 325 326 327 327 328 326 325 324 325 327 328 327 323 322 322 323 323 323 324 324 324 326 329 330 331 332 330 329 328 327 328 327 327 325 325 327 326 326 325 325
291 291 297 297 295 299 300 300 301 300 301 299 293 296 301 302 301 294 286 287 286 284 286 293 289 292 292 289 302 302 303 304 306 309 312 314 316 316 317 318 319 319 321 322 323 324 325 326 328 327 328 327 327 326 325 326 331 329 325 324 323 323 322 323 324 325 326 327 329 328 328 327 326 327 327 326 325 324 324 323 322 322 324 324 324 324
298 290 294 297 298 297 299 300 298 300 301 298 296 304 294 289 287 294 290 282 283 282 285 290 292 292 293 293 297 299 301 302 304 307 311 312 313 314 316 316 318 319 320 320 322 323 324 325 326 323 323 323 324 326 326 327 330 329 327 326 325 324 324 324 324 325 327 328 328 328 329 328 327 327 326 326 325 326 324 324 322 321 323 324 322 322
299 290 292 297 297 297 298 298 291 295 299 299 301 299 301 298 294 290 290 292 290 284 284 285 291 287 296 298 300 299 301 302 303 305 310 311 312 313 315 315 316 318 319 319 320 321 322 322 323 323 324 323 324 324 325 327 327 327 327 325 324 325 326 325 325 326 326 326 328 328 328 328 327 325 326 328 326 322 321 322 325 323 323 323 322 322
293 300 287 294 297 296 292 296 294 296 294 295 295 295 296 297 299 298 297 292 289 286 286 285 284 290 297 299 300 299 301 302 303 305 310 311 312 313 314 315 316 318 319 320 320 321 322 324 325 325 326 325 324 324 324 325 327 327 327 325 323 323 324 324 325 325 325 325 327 327 326 326 324 324 326 326 324 322 323 326 324 323 323 322 322 322
293 294 289 294 293 292 294 297 296 296 298 297 296 294 295 293 291 287 286 296 293 290 285 285 284 292 296 300 301 301 303 303 303 306 311 312 312 314 315 316 317 316 317 318 319 320 320 322 323 324 325 325 325 324 325 326 326 326 326 325 324 323 322 323 324 323 324 324 327 326 328 327 324 322 325 326 325 325 326 326 324 325 324 323 322 322
301 299 294 290 293 294 295 296 297 298 297 297 297 296 298 297 296 291 284 288 293 292 293 292 287 289 298 301 302 303 304 304 306 310 311 311 312 313 313 312 313 313 312 312 314 316 317 318 320 320 323 324 325 325 326 326 327 327 327 326 325 324 324 325 324 325 327 325 326 325 326 327 326 322 323 325 325 326 324 325 326 325 324 322 322 323
307 292 291 293 296 295 297 298 299 297 296 295 296 298 297 295 296 295 293 294 290 291 289 288 285 290 298 302 303 304 306 308 310 310 310 310 310 311 310 310 310 311 312 312 313 313 314 316 317 318 319 321 323 325 325 326 326 327 327 327 326 326 326 327 327 327 328 326 326 326 325 325 325 323 322 325 326 327 327 326 326 325 324 323 323 319
290 295 294 289 288 291 292 295 295 297 296 295 295 297 296 297 297 299 297 298 289 291 291 288 283 291 298 302 303 304 305 305 307 309 310 308 309 309 308 308 309 310 310 311 311 311 313 313 313 313 315 318 320 322 323 323 324 326 326 327 326 327 327 327 327 327 326 326 327 327 326 327 326 326 325 326 326 328 328 327 327 326 324 325 323 322
293 291 291 285 283 281 281 282 285 288 292 295 293 293 293 294 296 294 289 291 286 291 293 288 288 293 298 301 301 301 302 302 304 305 308 308 306 306 306 307 307 307 308 308 309 310 310 310 311 312 314 314 317 320 321 322 323 324 324 325 327 325 326 326 327 327 327 327 326 326 327 327 326 325 325 325 326 327 327 327 327 326 326 325 323 323
292 295 294 290 289 287 288 289 291 292 294 290 291 292 293 294 297 298 295 290 287 292 290 293 294 291 294 297 297 298 300 300 301 303 304 304 304 305 306 306 306 306 307 307 308 308 309 309 310 310 312 313 315 317 319 320 321 322 323 323 323 324 325 326 326 327 327 327 327 327 326 326 326 326 326 326 327 328 326 326 327 326 325 325 325 324
294 289 289 291 290 290 292 291 292 292 292 291 292 293 293 294 296 297 290 290 296 293 287 296 297 294 294 295 295 296 298 299 300 301 302 303 303 303 304 304 304 305 306 306 307 307 306 307 308 309 310 312 312 313 315 316 319 321 322 322 323 324 324 324 326 325 325 325 326 326 326 328 327 327 326 327 327 327 327 326 326 326 326 325 325 324
295 289 290 291 288 290 291 292 293 292 292 291 291 293 293 294 296 294 294 294 299 290 288 296 298 294 294 293 293 295 297 297 297 297 299 301 301 302 303 303 303 303 303 304 304 305 305 305 306 307 307 308 310 311 312 313 314 317 320 322 323 324 324 325 324 324 324 324 324 325 326 326 327 327 327 326 326 326 326 325 326 325 325 325 325 325
297 290 292 292 289 289 290 291 293 291 291 292 292 292 294 294 294 295 295 296 298 296 298 297 295 292 293 293 295 296 298 297 297 298 299 298 298 300 300 300 300 300 301 301 302 303 304 304 304 305 305 306 307 307 307 309 310 312 315 317 319 321 322 324 324 323 323 324 324 325 325 326 327 327 327 326 325 325 325 326 326 325 324 324 324 325
302 288 293 293 290 289 291 292 292 291 291 291 292 293 293 294 294 295 295 295 297 296 295 293 290 288 294 297 296 296 297 297 296 296 296 298 298 298 298 298 298 299 299 300 300 301 302 303 303 303 303 304 304 305 306 307 308 309 311 313 316 318 320 322 322 322 322 323 323 324 325 324 324 325 325 326 326 326 325 325 325 326 324 324 324 324
301 290 295 294 288 287 290 290 289 291 291 289 290 292 292 293 290 293 290 293 295 292 294 292 289 287 292 295 294 295 296 295 294 295 295 296 297 297 296 296 297 297 298 298 299 300 300 300 301 301 302 303 303 304 304 306 306 307 308 309 309 312 316 320 321 321 321 322 323 324 324 324 323 323 323 324 324 324 324 324 324 324 324 323 324 325
299 294 291 291 288 287 290 290 289 289 289 284 286 291 290 291 291 292 293 294 294 297 293 290 291 294 292 293 292 293 295 294 294 294 293 294 295 296 295 295 296 296 297 297 297 298 299 299 300 301 301 301 301 302 303 304 305 305 307 308 309 310 310 310 312 315 318 320 321 322 324 323 322 322 322 322 322 322 323 322 322 323 323 322 324 324
299 297 292 296 287 289 290 292 293 288 280 283 288 288 291 290 290 290 288 289 291 293 291 295 292 293 292 293 293 292 292 292 293 295 297 296 295 295 295 295 296 296 297 297 297 297 299 299 300 301 301 301 301 302 303 304 303 305 307 307 308 309 309 309 309 311 312 315 317 320 321 321 321 321 322 322 321 321 321 321 321 323 324 323 323 322
294 296 293 296 290 288 291 291 286 280 283 288 290 292 292 292 292 289 288 289 290 292 293 292 292 292 293 294 293 292 292 293 294 294 295 297 297 296 295 294 294 294 295 296 296 296 298 299 300 300 301 301 301 302 302 302 303 304 304 305 306 307 308 308 308 310 310 310 311 312 315 318 320 321 321 322 321 321 320 320 321 322 323 323 322 322
291 292 293 291 292 291 287 287 278 281 286 290 291 293 295 294 293 291 288 289 291 293 294 292 292 292 292 291 292 293 293 293 294 294 294 295 296 296 295 295 296 296 296 297 297 298 298 299 299 300 301 301 301 301 301 301 303 303 303 304 304 305 307 307 307 307 308 309 309 310 310 311 312 315 318 320 321 320 321 322 322 322 322 322 323 323
295 295 293 288 291 284 287 287 284 288 288 288 287 290 292 290 291 291 285 286 291 294 294 292 291 291 290 290 291 292 293 293 290 291 294 294 295 296 296 296 297 297 298 298 298 297 298 299 299 299 300 301 300 299 300 301 301 302 302 303 302 302 304 306 306 306 307 307 308 308 309 310 310 311 313 316 318 319 320 321 321 322 323 322 322 321
295 290 292 288 285 288 286 285 284 283 281 285 289 292 293 293 293 294 291 286 292 294 295 293 291 291 291 291 291 292 294 291 288 288 292 294 295 295 296 296 297 297 297 297 298 298 299 299 300 300 300 299 299 299 300 300 301 301 301 302 301 301 302 302 303 305 305 306 307 307 308 309 309 310 310 312 314 316 318 320 321 322 322 321 321 320
295 295 291 289 286 286 284 282 282 280 281 286 289 291 293 292 294 295 290 286 291 294 295 294 292 292 293 292 293 294 293 291 289 290 292 294 294 295 295 295 296 296 296 297 297 296 297 298 298 299 299 299 298 299 300 300 300 300 300 301 301 301 301 303 302 303 303 305 306 307 307 308 309 310 310 310 312 315 316 318 320 321 322 321 322 322
291 291 290 287 284 285 285 283 281 284 281 287 289 290 291 294 292 292 282 283 290 294 294 294 293 293 294 294 294 294 292 290 290 290 294 295 295 296 295 295 295 295 295 297 297 297 297 298 298 298 298 298 298 299 300 299 299 299 299 300 301 300 301 302 302 302 303 304 305 306 307 308 308 309 310 310 311 313 315 317 319 321 321 321 321 321
286 286 288 284 286 284 282 284 286 284 287 289 289 291 292 294 292 283 280 286 292 294 294 295 294 294 294 294 295 289 291 291 292 294 295 295 295 295 296 296 296 295 295 295 295 295 296 296 297 296 297 298 298 298 299 298 298 298 299 299 299 300 301 302 303 303 303 303 304 304 305 306 307 308 309 310 310 311 313 314 315 318 320 320 320 320
285 285 285 287 285 284 285 282 283 285 285 290 291 290 291 289 281 282 287 294 294 293 294 294 293 294 294 294 293 292 292 293 294 295 294 295 295 295 295 295 295 295 296 296 295 295 295 295 296 297 297 297 297 298 298 297 297 297 298 298 298 300 301 302 302 302 302 302 302 303 304 305 307 308 309 309 311 311 311 313 314 317 319 319 319 320
284 283 283 283 285 284 284 282 280 278 284 290 290 288 290 284 283 289 292 293 294 293 293 292 293 293 294 292 294 294 294 294 294 294 295 295 295 295 295 295 295 294 294 295 295 295 294 295 295 295 296 297 297 297 297 297 296 297 297 297 298 299 300 300 301 301 301 301 302 302 303 304 305 306 307 308 309 309 309 311 313 314 316 317 317 318
289 284 284 284 286 281 282 280 279 283 287 292 291 285 286 288 291 293 292 290 293 293 293 292 293 294 294 294 293 293 294 294 294 294 295 295 295 295 295 295 295 294 294 295 295 295 294 294 295 295 296 297 297 297 297 297 296 296 296 297 299 299 299 299 299 299 299 300 300 301 301 302 303 305 306 306 307 308 309 309 311 312 313 313 314 315
289 287 288 284 288 284 282 283 287 290 291 293 293 291 292 293 294 293 293 292 292 292 295 293 293 294 294 294 294 294 293 293 293 294 293 293 294 294 293 293 294 294 294 294 294 295 294 294 294 295 295 296 297 297 297 296 295 295 295 297 298 297 298 298 298 298 298 299 299 300 301 302 302 303 304 305 306 306 306 308 310 310 312 312 311 311
290 291 293 289 284 288 290 291 291 291 291 292 293 294 293 294 295 295 294 292 293 294 295 294 294 294 294 294 293 293 293 293 293 293 293 293 293 293 294 293 294 295 295 295 295 294 294 295 295 295 294 295 296 296 296 297 296 295 296 297 297 297 297 297 297 297 297 297 298 299 299 300 300 301 302 303 305 305 304 305 307 308 309 310 310 310
290 290 290 285 288 286 280 290 289 289 291 292 291 293 294 295 294 294 293 293 293 294 293 294 294 293 293 293 292 292 292 292 292 292 292 292 292 292 292 293 293 294 294 294 294 294 294 294 294 294 294 294 296 297 297 297 297 298 298 298 298 298 298 297 297 296 296 296 297 299 299 299 299 300 301 302 304 304 303 303 305 307 306 309 309 309
286 293 288 287 287 285 284 288 290 292 292 293 293 290 290 290 291 291 292 292 292 293 293 293 293 292 293 292 292 291 291 292 291 290 290 290 291 292 292 293 293 293 294 295 295 294 294 294 293 294 294 294 296 296 297 297 297 298 298 298 298 298 297 297 296 296 296 296 297 296 297 298 292 295 299 300 301 301 302 304 305 305 306 308 309 309
289 291 284 287 286 288 289 290 290 291 291 291 293 295 293 292 291 292 293 293 293 293 293 293 294 293 293 293 293 292 291 291 291 291 290 290 291 291 292 293 293 293 294 294 294 294 293 293 293 294 294 295 296 296 297 297 297 298 298 298 298 298 296 296 295 295 296 296 296 296 297 297 298 298 298 300 300 301 302 304 304 303 304 307 312 312
289 285 288 287 284 283 284 287 290 285 284 289 291 292 293 294 294 293 293 293 293 293 293 292 293 294 294 294 293 293 291 291 291 291 290 290 291 292 292 292 293 293 293 294 294 294 295 294 295 294 295 296 297 297 296 297 297 298 298 298 298 298 296 296 295 295 294 295 295 296 296 297 297 298 298 299 299 300 302 292 291 301 306 306 294 290
287 288 288 285 284 283 289 291 292 291 291 292 293 293 294 295 294 293 293 293 293 293 293 293 292 293 292 293 293 292 291 290 290 291 290 291 291 292 292 292 292 292 292 293 293 294 294 294 295 295 295 296 297 296 297 297 297 298 298 298 298 297 296 295 294 293 293 293 294 294 295 296 296 298 299 299 299 300 299 303 300 287 285 290 295 293
Wind_Speed
7 9 10 10 9 10 11 11 4 3 3 2 5 7 8 8 8 8 4 5 2 6 10 11 12 11 11 11 11 9 9 9 10 10 10 11 11 12 12 12 12 11 12 11 12 13 13 12 12 13 12 12 13 12 13 14 13 12 10 10 10 9 9 8 7 8 8 7 6 5 4 4 4 3 4 3 3 2 3 3 5 6 4 4 3 3
6 9 9 10 7 8 7 4 1 3 2 6 6 9 7 8 7 10 7 6 4 6 9 11 9 11 11 12 8 10 9 10 12 12 11 12 12 12 13 13 12 11 9 12 12 13 13 11 13 12 12 14 14 15 15 15 15 12 11 10 10 9 10 8 8 7 6 5 5 4 5 4 4 5 4 4 4 3 4 4 4 5 5 4 4 3
8 10 7 7 5 4 2 4 4 6 7 6 7 8 7 8 9 7 4 4 3 5 8 6 10 11 13 10 7 10 12 10 10 10 11 11 12 11 12 12 12 12 12 13 12 13 13 14 15 13 12 13 14 14 14 13 12 11 10 8 8 8 9 8 8 6 6 4 3 3 4 3 4 3 3 4 4 4 5 5 5 5 6 6 5 4
8 8 8 7 6 5 5 5 6 6 7 8 8 7 8 6 9 9 6 7 5 5 4 2 8 8 5 6 8 8 10 8 5 7 8 9 12 12 12 12 12 13 13 14 14 14 15 15 14 13 13 12 12 12 11 12 13 10 7 8 8 8 8 7 6 5 4 4 5 4 3 2 1 4 4 4 4 5 5 5 4 5 5 6 6 7
5 6 6 8 7 8 7 7 8 8 9 10 9 8 9 7 9 7 8 4 3 3 5 7 8 8 9 10 9 8 6 5 7 6 7 7 8 9 10 11 11 13 12 12 15 15 15 16 16 15 13 12 12 11 10 9 10 7 7 8 8 8 8 7 7 5 6 6 6 5 5 4 4 4 3 3 4 4 5 5 4 5 5 5 5 5
6 7 4 8 8 9 8 7 10 9 9 9 12 11 8 6 8 7 5 7 7 7 8 9 8 8 9 10 12 9 9 9 7 8 9 9 10 11 12 12 11 11 12 13 15 16 16 16 14 14 14 13 12 8 6 6 6 8 8 9 8 8 7 7 8 8 6 5 5 5 6 6 5 4 4 3 4 5 5 5 5 5 4 4 4 4
3 8 7 6 8 9 9 9 9 12 10 8 10 14 13 10 6 4 5 5 7 9 8 5 10 3 8 10 9 7 11 12 9 8 9 10 10 11 11 11 12 13 12 12 13 15 16 16 15 15 11 7 2 8 12 14 14 11 5 5 7 6 5 5 7 6 5 6 5 7 6 6 5 4 3 3 3 3 4 5 5 5 4 4 4 4
7 7 6 7 8 9 8 9 8 11 9 8 7 16 15 12 9 8 7 8 5 6 5 6 8 5 8 10 8 7 9 11 12 10 10 9 11 11 11 11 11 12 13 13 14 15 15 15 15 12 11 15 14 13 12 13 13 12 15 16 14 8 6 3 2 4 4 5 5 6 6 4 4 3 4 4 3 3 3 4 4 4 4 4 5 5
11 10 10 10 10 8 8 7 10 14 10 2 6 8 12 11 10 8 8 8 4 4 7 8 8 7 8 9 6 8 10 11 11 11 11 10 10 11 11 10 10 11 12 13 13 14 14 14 13 12 14 10 13 10 11 10 10 10 11 14 13 11 12 11 8 2 2 3 4 5 4 3 2 4 5 4 4 4 3 4 3 3 5 5 4 4
5 7 12 12 8 7 3 2 4 11 13 5 3 3 4 5 5 6 8 9 5 7 7 7 6 8 7 9 10 8 10 11 11 10 10 9 9 9 9 10 10 9 9 10 11 11 12 12 10 13 12 7 6 8 8 7 6 9 11 12 12 10 7 7 8 7 5 4 4 4 3 4 3 4 4 4 5 4 4 4 4 4 3 4 5 4
4 2 5 7 9 2 4 4 1 9 4 3 6 8 8 8 6 6 6 6 7 7 9 6 5 6 6 9 10 9 3 3 3 6 4 2 4 6 6 8 8 9 9 8 10 10 10 9 9 12 9 10 13 13 16 16 14 10 4 11 11 9 8 7 6 5 3 2 3 4 2 4 4 4 4 5 5 5 5 5 5 4 3 3 5 4
7 5 6 5 5 0 2 3 2 0 2 6 7 9 8 7 6 7 7 6 7 8 6 6 5 6 7 8 6 8 6 5 3 3 4 4 4 3 3 6 7 8 8 9 10 9 8 7 10 12 9 12 11 7 11 10 9 9 12 7 8 10 8 8 8 6 4 1 1 1 3 4 4 5 5 5 6 6 5 5 5 4 5 4 5 5
10 9 8 6 4 7 7 6 5 6 6 8 8 10 10 8 6 7 8 8 9 7 4 4 6 7 9 6 8 7 7 5 5 4 4 4 4 3 2 2 5 7 8 9 9 9 9 9 10 11 12 13 14 11 13 14 14 11 5 7 7 8 5 5 7 7 7 4 2 0 1 3 4 5 4 4 5 5 4 4 4 4 5 5 6 5
8 11 11 9 6 10 8 9 7 7 8 10 11 10 10 8 8 7 9 6 9 5 4 3 1 8 4 7 7 6 7 6 5 5 5 5 5 3 2 3 5 5 6 6 7 8 8 9 10 11 12 11 12 6 6 9 13 13 14 12 7 9 3 3 1 4 7 7 6 4 3 1 2 4 3 1 3 3 3 4 4 4 5 6 6 6
8 11 12 10 9 11 12 11 6 7 11 11 12 11 9 8 7 6 8 8 8 5 6 5 5 7 11 5 6 7 5 7 7 7 7 6 6 5 3 3 5 6 6 5 6 7 8 9 11 10 12 11 12 12 9 9 8 11 14 13 13 10 10 12 8 3 3 5 6 6 5 5 5 5 3 1 2 3 4 4 4 4 5 5 6 6
11 7 7 11 4 10 12 13 9 8 9 9 6 7 8 7 4 6 2 5 4 6 6 7 4 2 0 5 5 4 6 8 8 9 9 10 8 7 7 7 6 6 6 6 8 8 9 10 11 11 12 12 11 14 10 6 8 11 13 14 14 13 13 11 10 8 6 4 7 9 8 5 3 2 3 4 2 2 4 5 5 4 4 5 5 5
5 9 10 5 4 6 7 3 8 7 8 8 8 11 6 2 5 1 2 4 1 2 6 4 7 4 6 5 7 5 6 9 9 10 10 10 9 8 8 8 7 7 7 7 7 8 11 11 12 13 14 12 11 11 10 7 9 12 14 15 15 13 9 9 11 12 12 12 9 6 5 4 4 3 4 4 4 3 4 5 4 3 3 5 5 5
6 6 7 8 11 5 1 4 3 5 6 6 10 9 5 0 5 4 5 4 5 7 4 6 9 8 9 6 6 5 5 9 10 10 10 10 9 9 9 8 8 7 7 7 8 8 7 7 8 9 9 8 7 10 12 10 10 11 12 15 15 12 11 10 12 12 11 9 8 9 9 7 7 6 7 6 6 6 5 6 7 4 1 4 5 4
7 7 7 3 2 6 6 7 7 5 5 5 6 7 10 6 9 8 5 6 6 8 6 8 11 9 10 5 7 4 6 8 9 8 9 9 9 9 9 9 9 8 7 7 6 6 5 4 5 7 9 9 9 9 11 11 11 12 12 13 12 13 12 12 10 10 9 10 7 7 9 9 7 7 8 7 7 6 6 6 6 9 4 2 5 5
5 8 5 2 4 5 7 9 10 9 9 4 2 8 4 4 9 6 6 6 6 7 7 6 10 8 6 5 6 6 6 6 6 6 8 9 8 7 7 8 8 7 6 5 5 5 5 5 5 7 7 8 10 11 11 12 10 12 11 13 12 11 11 11 11 10 10 10 9 9 7 7 7 8 8 8 8 6 4 5 6 8 8 5 4 6
4 1 5 6 4 4 7 8 12 11 10 9 9 10 5 6 3 5 3 8 7 6 6 6 7 7 6 5 6 6 5 5 4 4 4 6 8 8 8 7 7 7 7 7 6 7 8 7 8 9 8 8 9 10 10 10 12 11 9 10 12 13 12 11 10 10 9 9 9 9 9 9 9 10 8 9 8 5 4 4 5 6 6 6 5 6
4 6 8 6 7 7 4 5 5 7 4 8 11 12 11 10 10 10 10 7 9 8 6 7 8 4 6 5 4 4 3 2 2 2 7 8 8 8 7 8 7 8 7 7 7 7 7 9 10 10 10 9 9 10 11 10 9 10 9 10 10 10 10 10 10 10 10 9 9 10 8 9 10 10 8 8 7 5 4 2 3 5 5 6 6 5
3 4 9 6 9 4 7 6 4 3 3 5 6 10 12 11 11 10 11 8 8 9 6 7 7 2 4 5 5 4 4 4 5 6 8 8 9 9 9 8 8 8 8 8 7 8 8 10 10 10 11 11 11 11 11 9 8 8 8 8 8 9 9 9 9 9 8 9 10 11 10 9 9 9 9 8 7 7 6 5 5 6 6 6 5 5
2 3 9 11 4 4 6 4 2 1 2 6 7 4 4 11 11 10 10 4 8 6 8 6 6 4 5 5 4 5 6 6 6 8 9 8 9 9 10 10 10 10 10 10 9 9 9 9 9 9 10 10 10 11 11 10 10 9 8 8 9 8 8 8 7 7 7 8 9 10 10 9 9 11 11 9 7 7 6 6 5 6 6 7 6 7
3 2 6 7 8 8 7 7 6 3 4 6 4 2 3 2 2 2 1 1 7 10 12 9 10 3 5 3 5 8 8 8 8 9 8 10 9 9 11 10 10 11 10 11 11 11 11 12 12 11 10 11 10 11 10 10 10 9 9 8 8 8 7 7 6 6 7 7 8 10 10 12 12 12 11 10 8 8 7 6 5 5 6 6 7 7
1 3 3 8 10 10 10 10 9 8 8 3 2 1 1 4 6 7 8 7 10 6 11 8 3 7 7 6 8 8 8 9 8 8 9 10 10 10 10 10 10 10 10 12 12 14 14 12 11 12 11 11 10 9 11 10 10 9 9 8 6 7 7 6 5 5 5 6 8 8 9 10 10 10 11 10 8 8 7 6 6 6 6 6 7 7
2 2 5 6 6 5 7 8 6 5 3 4 5 3 2 3 5 7 8 8 10 6 9 7 3 12 10 9 9 8 8 10 10 10 11 10 11 11 10 10 10 10 11 12 12 12 12 14 14 14 14 12 11 10 9 9 9 9 8 8 7 6 6 4 4 4 4 5 5 6 7 7 8 8 8 8 8 7 7 7 6 7 6 6 6 7
3 1 3 8 8 6 6 7 8 6 2 5 2 3 3 2 3 5 8 8 9 6 10 7 15 13 10 10 8 9 9 10 10 10 10 10 10 10 11 12 13 13 13 12 13 14 15 15 15 15 14 13 11 11 11 10 9 8 7 7 7 6 5 4 2 3 3 4 4 4 4 5 5 6 6 6 7 7 7 6 6 6 6 6 6 7
9 5 5 5 4 6 7 9 8 6 7 6 7 5 5 4 2 2 6 8 9 6 5 10 12 13 11 9 7 7 9 9 9 9 9 10 11 11 12 13 14 14 14 14 14 14 15 15 14 15 14 13 14 14 13 11 11 9 8 7 7 6 5 4 3 3 4 3 3 4 4 5 5 5 5 6 6 6 7 6 6 6 6 6 7 6
5 3 9 9 11 9 8 8 9 8 6 7 8 8 7 8 8 8 8 9 8 9 11 13 15 13 9 9 9 10 9 9 9 9 9 11 12 12 13 14 14 14 14 14 14 14 14 15 15 15 15 15 15 14 13 12 11 10 8 7 6 6 5 4 2 2 2 3 3 3 4 4 4 5 5 6 7 7 7 6 6 7 7 7 8 8
5 5 11 11 9 8 8 7 7 7 5 5 6 5 7 10 11 9 8 7 8 11 12 14 13 11 7 8 10 8 8 9 10 12 12 11 12 12 13 14 13 14 14 14 14 14 14 14 15 15 15 15 15 14 12 11 11 10 10 8 7 6 5 4 3 2 1 1 1 0 1 2 3 3 4 4 5 6 7 8 7 7 8 8 8 9
4 7 8 8 6 7 6 6 6 6 7 6 4 3 5 3 5 6 5 5 4 6 9 11 8 7 8 9 9 9 11 12 12 12 11 10 11 12 13 13 13 13 13 13 13 13 13 14 14 14 14 14 13 13 12 11 11 11 10 9 8 7 6 4 3 2 3 1 1 1 1 2 2 3 3 4 4 5 5 6 7 8 8 8 9 8
6 9 7 7 7 5 9 6 4 6 5 5 5 4 5 6 6 5 6 6 9 4 5 2 5 10 11 10 12 12 12 13 13 12 11 12 11 12 12 12 12 12 13 12 13 13 13 13 13 13 13 12 12 12 13 12 11 10 10 9 8 7 7 6 5 3 2 2 2 1 1 1 1 1 2 3 3 3 4 5 7 8 8 9 8 7
2 9 7 8 6 4 9 8 7 5 8 7 3 2 1 4 2 3 3 5 6 7 4 6 12 13 11 10 12 13 12 11 10 10 9 9 9 11 11 12 12 12 12 12 12 12 12 11 11 11 12 12 12 12 11 12 11 10 9 8 8 8 7 6 6 6 6 5 4 3 2 1 1 3 2 3 3 3 4 5 6 6 6 6 8 9
5 7 6 5 6 5 8 8 6 9 7 5 3 4 3 4 5 10 8 6 4 5 9 14 15 14 12 11 12 13 13 13 12 12 11 9 9 9 10 11 10 9 8 8 9 10 10 10 11 11 12 12 11 11 11 12 12 10 10 9 9 8 7 7 7 7 7 7 7 6 4 3 3 3 3 4 4 4 5 5 5 6 6 6 7 9
1 5 2 2 2 4 5 7 7 3 6 3 5 4 4 6 9 12 9 7 4 6 10 13 12 12 12 13 12 12 13 13 12 11 10 10 9 8 9 9 9 8 9 8 8 8 8 9 10 10 10 9 10 10 11 11 11 11 10 10 9 8 7 7 6 7 7 6 6 6 6 6 5 4 4 4 5 6 6 7 6 7 7 7 7 7
5 2 3 3 1 5 5 8 5 5 6 6 4 6 5 4 7 4 2 4 4 6 9 12 13 13 12 11 11 11 12 11 10 9 8 9 9 9 9 9 8 8 8 8 8 8 8 8 8 8 8 8 9 10 10 10 10 9 9 8 8 8 7 7 7 7 7 7 7 7 6 6 6 5 5 5 5 6 7 8 8 8 7 7 8 9
5 3 1 2 2 3 5 8 5 4 7 5 4 5 4 4 6 4 4 5 4 4 9 13 14 14 13 12 11 9 7 8 6 6 6 7 7 7 8 7 7 8 8 8 8 7 7 6 6 6 6 7 8 9 8 8 8 8 8 8 8 9 8 8 8 8 8 8 8 8 8 7 7 6 6 5 5 6 6 7 7 8 8 9 9 10
4 2 1 3 1 4 6 8 8 8 1 4 6 3 4 3 5 3 4 5 7 8 11 12 14 13 12 11 10 7 7 6 6 6 5 5 6 6 6 7 8 7 8 8 9 9 8 8 8 8 8 8 9 9 9 9 8 8 8 8 8 8 8 8 8 9 9 9 9 9 8 7 7 7 7 6 6 5 6 6 7 7 7 8 8 9
2 1 3 3 1 2 6 7 8 1 3 2 3 1 4 4 3 5 6 6 12 10 9 10 11 10 9 6 5 3 3 4 8 7 5 5 6 7 7 7 7 7 8 8 9 8 7 7 8 8 9 9 9 9 8 8 8 8 8 7 8 8 7 7 8 9 9 9 9 8 8 8 7 7 7 7 7 6 5 5 6 6 7 7 8 8
2 1 2 7 7 2 1 6 0 4 3 3 3 5 4 3 5 5 5 7 11 12 9 9 9 7 6 6 4 2 7 8 9 7 6 5 5 6 6 6 7 7 8 9 9 8 8 8 7 8 8 7 8 8 7 7 7 8 7 7 7 7 7 7 7 8 8 9 9 9 9 8 8 8 8 7 7 7 6 5 5 6 6 8 8 7
3 1 0 1 6 7 5 7 7 3 3 4 4 5 5 2 4 1 5 5 11 10 9 9 10 8 7 7 7 8 8 8 8 6 6 6 6 6 6 7 7 7 7 7 7 7 8 8 7 8 8 8 8 8 8 8 8 8 8 8 8 9 8 8 8 8 9 9 9 9 9 9 9 8 7 7 7 7 7 6 6 5 6 7 7 8
4 3 1 1 1 0 2 5 4 7 4 4 4 2 5 1 4 4 7 10 9 10 10 9 8 8 7 9 9 8 7 7 7 6 5 6 6 6 6 7 7 8 8 8 8 8 8 8 7 8 8 8 8 7 7 8 8 8 8 9 10 9 9 9 9 9 10 10 10 10 10 10 10 8 7 7 8 8 7 8 7 6 6 7 7 8
6 4 1 2 5 3 5 5 2 5 2 2 4 1 4 7 6 6 8 9 8 7 7 7 8 7 7 7 7 7 6 6 5 5 5 5 5 5 6 6 7 7 7 7 8 8 8 7 7 7 7 7 7 7 7 7 8 8 8 10 9 9 9 9 10 10 10 9 10 11 11 11 10 9 8 9 8 8 8 7 8 8 8 9 9 8
8 4 5 2 4 4 4 5 4 3 5 6 8 11 11 9 6 6 7 7 7 6 5 7 7 7 6 6 6 5 5 5 5 4 5 5 5 5 6 7 6 7 7 7 7 7 8 7 8 8 8 8 8 7 7 7 7 9 10 9 9 10 10 10 10 10 10 11 11 11 11 10 10 10 10 9 8 8 8 7 7 8 8 9 10 10
3 3 2 3 5 7 8 7 6 7 8 9 9 9 10 9 8 7 7 7 7 7 6 6 6 6 6 6 4 5 5 5 4 4 4 4 5 5 5 5 6 6 6 7 7 8 8 7 7 7 8 9 8 7 6 6 7 9 9 8 9 9 10 10 10 10 11 11 11 12 12 12 12 12 12 11 9 9 8 8 7 7 9 9 10 11
4 1 1 3 6 3 4 5 8 8 7 8 9 8 9 8 8 7 8 7 7 7 7 7 7 6 6 6 6 4 4 4 4 4 5 5 5 6 6 6 7 7 7 8 8 8 8 8 7 8 9 9 8 7 8 8 8 9 10 10 11 11 12 11 11 11 10 11 12 12 12 13 12 11 11 12 10 10 10 9 8 7 8 9 10 11
6 1 4 4 2 1 7 8 7 6 5 6 6 6 6 7 7 7 7 6 6 6 6 6 5 5 3 4 4 4 3 3 3 4 4 5 5 6 6 6 7 7 7 7 8 8 8 7 8 8 8 8 9 9 9 10 11 11 11 11 12 12 12 13 13 14 14 14 13 12 12 13 13 13 12 12 11 10 10 10 9 8 6 7 8 9
4 4 1 2 2 7 9 8 6 5 4 4 4 4 5 5 6 6 6 7 7 7 6 5 4 3 4 4 3 2 2 3 3 4 5 5 5 5 6 7 7 8 8 8 8 8 7 7 8 8 8 8 8 9 9 10 11 12 12 12 12 13 13 14 15 14 15 14 13 14 13 12 13 12 12 12 12 12 11 10 10 10 9 7 5 4
4 2 3 3 4 5 5 8 9 5 5 7 5 5 5 4 4 5 5 4 4 4 3 3 4 4 4 4 4 4 4 4 5 5 6 6 5 6 7 7 7 8 9 8 7 7 6 6 6 7 8 8 8 9 10 11 12 12 13 13 13 14 14 15 14 15 14 13 13 12 12 11 12 12 12 12 13 12 10 5 4 2 6 4 9 9
3 2 4 2 1 1 5 9 6 3 5 5 7 6 5 3 3 3 3 3 2 2 1 1 1 1 1 2 3 3 5 5 6 6 6 5 6 6 7 8 9 9 9 9 8 6 6 7 7 8 9 9 9 10 11 12 13 13 14 14 14 14 14 14 14 13 13 13 13 13 12 12 12 11 11 11 12 12 13 9 5 1 2 6 4 8
Wind_Direction
175 203 194 206 208 192 197 214 274 46 315 278 209 221 215 215 194 197 160 136 158 244 225 221 225 238 234 229 198 184 182 206 210 189 185 174 171 175 183 187 185 183 186 179 176 177 176 174 175 180 178 186 190 192 194 194 197 196 189 164 155 151 152 168 179 179 183 184 183 183 189 179 163 160 137 122 113 116 81 107 133 139 149 157 173 166
223 221 207 209 212 184 190 200 289 248 276 222 210 218 202 216 221 194 172 136 149 245 222 218 239 233 235 234 195 173 186 202 205 197 192 181 177 175 183 185 182 181 174 176 179 181 176 179 177 183 183 186 192 194 195 198 196 198 193 179 150 144 157 169 189 185 187 187 183 177 178 170 154 158 171 138 128 122 121 127 125 129 131 139 149 158
206 220 201 195 99 98 101 186 206 225 219 224 227 203 227 200 228 117 129 181 166 223 249 197 227 231 229 217 166 196 199 207 207 208 197 185 177 178 181 180 181 177 176 179 184 182 185 183 183 183 191 192 194 191 194 189 187 192 189 175 145 145 156 175 189 188 180 174 156 178 143 173 140 89 65 93 98 131 135 136 135 130 134 144 140 139
205 212 207 148 145 155 165 192 202 212 230 218 213 220 211 189 196 188 156 162 168 242 294 224 240 234 198 193 194 206 212 196 197 212 204 195 184 183 178 179 181 179 178 181 188 190 190 191 189 190 189 192 188 192 185 180 179 179 171 170 150 146 155 163 188 197 158 132 117 96 118 101 114 122 108 102 119 115 127 129 128 128 139 138 138 142
206 74 104 150 176 198 190 191 204 213 212 217 233 221 222 172 213 270 131 159 160 213 258 252 240 229 197 195 193 187 203 191 192 196 197 193 196 180 175 177 186 181 176 182 190 193 196 198 196 193 194 190 185 183 175 171 162 151 160 156 149 146 155 160 167 173 138 128 124 116 116 119 108 130 148 150 134 128 115 116 122 117 117 121 122 127
223 113 133 187 193 208 208 201 214 224 226 202 214 237 246 228 218 210 137 200 204 203 197 226 232 215 176 193 194 169 186 206 195 203 197 189 183 182 183 183 180 186 185 190 190 195 199 203 200 202 202 200 191 169 146 132 131 141 155 158 151 149 152 159 171 169 152 147 153 158 166 173 179 168 177 169 144 149 154 119 116 121 123 115 117 122
239 127 194 182 192 202 216 233 201 216 233 216 195 213 232 238 226 241 219 221 217 232 152 211 249 183 163 185 176 173 192 199 194 210 208 190 188 189 187 183 184 186 184 191 194 196 199 203 205 205 204 204 164 73 61 47 32 30 47 142 131 132 135 155 167 149 148 161 177 181 185 185 185 171 147 99 122 128 112 124 137 122 128 126 122 117
209 179 187 215 215 217 220 224 190 206 225 219 141 192 210 218 219 222 235 236 252 64 126 226 234 241 177 178 162 160 188 193 196 202 209 199 192 193 191 185 186 188 185 186 193 199 200 200 205 195 79 67 80 90 98 91 88 72 59 41 19 25 41 57 126 140 163 182 192 192 199 189 185 152 120 134 124 103 125 130 137 139 134 135 127 133
193 186 205 202 218 221 213 219 164 199 220 106 127 197 205 209 211 218 226 223 248 251 204 201 212 239 196 139 146 169 187 192 198 200 199 201 196 194 191 188 186 193 188 188 189 198 199 201 196 112 112 148 133 137 131 133 131 117 94 90 82 52 44 30 12 12 183 224 209 202 190 175 119 122 137 143 147 145 138 136 137 124 119 112 103 115
192 206 199 208 210 207 182 77 203 186 220 105 152 173 205 206 217 228 219 226 189 224 227 195 203 239 191 151 177 182 201 184 189 192 194 191 195 194 193 189 179 186 200 196 197 193 201 203 170 129 158 146 62 64 71 72 90 116 117 108 97 95 89 83 48 0 313 268 241 217 198 161 146 144 141 152 146 154 159 144 141 136 134 126 124 115
70 66 344 237 216 283 73 68 319 216 240 27 192 181 169 182 187 204 239 237 209 225 226 163 201 257 210 172 182 183 150 57 120 136 98 113 182 184 182 189 183 181 188 198 202 201 196 194 143 126 121 116 74 58 42 30 9 6 71 124 117 123 118 108 99 84 49 333 274 254 209 181 158 151 157 157 164 163 171 155 155 146 126 125 119 123
211 180 208 203 251 97 222 137 119 166 187 221 194 197 175 185 191 208 203 204 231 226 160 158 223 232 235 165 133 80 86 64 28 73 71 70 78 78 152 188 188 191 186 187 193 190 187 161 139 129 125 105 89 74 85 90 59 16 352 349 127 137 146 136 133 128 102 103 119 291 224 202 180 171 179 176 170 172 166 156 147 139 136 131 128 125
215 214 222 184 182 226 204 210 138 177 186 220 214 200 197 184 193 205 193 208 218 231 130 156 203 211 222 59 100 82 53 45 30 11 13 15 33 67 112 175 184 188 187 185 179 165 170 166 149 134 116 124 148 172 150 137 139 133 112 11 3 350 355 114 127 135 136 135 117 61 226 221 193 194 204 183 171 165 155 152 141 142 131 138 134 125
207 218 210 211 188 210 236 222 153 186 187 204 208 196 207 203 195 217 204 213 223 137 112 184 184 238 172 114 48 63 48 34 33 37 35 35 34 31 72 158 170 173 179 165 154 157 171 167 146 140 127 125 130 154 181 151 145 145 141 146 186 194 219 347 356 154 142 131 122 114 101 5 327 306 286 194 159 156 138 134 136 133 128 125 123 119
202 185 209 197 212 173 212 240 199 206 181 201 210 210 219 234 212 202 226 214 219 217 135 120 203 205 209 104 62 60 64 52 48 49 56 53 62 72 97 110 132 164 161 145 136 138 152 147 137 146 132 136 134 176 202 172 158 137 137 154 184 198 182 185 171 155 131 133 140 153 154 174 169 177 175 105 139 149 127 111 108 109 122 122 119 114
230 244 170 186 36 167 207 214 241 217 197 203 223 235 223 232 225 245 343 297 241 206 165 178 231 245 206 100 96 105 82 61 52 56 51 55 57 71 86 90 104 121 126 123 122 134 133 136 142 146 147 141 152 169 183 189 150 149 147 157 179 190 187 181 154 141 142 190 172 173 176 179 131 160 156 132 140 131 123 117 112 110 104 109 110 105
183 229 124 162 170 214 217 166 216 226 221 164 205 212 220 331 240 188 165 97 38 267 232 167 207 156 117 150 104 113 81 58 48 52 53 53 65 75 82 93 103 111 122 124 135 135 138 145 155 153 148 156 165 166 154 158 170 164 151 157 172 186 185 165 149 157 177 185 180 148 135 139 152 168 119 111 116 136 125 107 75 40 73 116 111 98
243 200 129 181 196 179 302 240 236 223 296 164 214 207 92 91 312 241 242 150 230 230 212 180 211 191 189 184 131 110 62 43 40 41 56 60 67 81 89 95 94 96 106 124 126 130 129 119 109 89 125 137 140 143 139 156 182 172 157 158 166 171 171 170 165 167 174 166 138 155 157 156 168 147 126 133 166 182 175 149 128 124 240 128 111 109
227 239 163 200 127 122 168 195 202 200 256 263 276 137 207 181 212 198 251 226 217 216 225 205 215 221 207 167 160 85 27 24 31 36 51 61 66 77 82 83 91 98 98 101 110 114 117 84 91 112 119 123 136 135 136 155 172 174 162 159 160 166 175 171 170 168 169 170 153 160 173 172 164 149 146 158 184 195 178 170 156 139 127 152 128 129
198 245 157 128 206 140 186 203 217 183 189 228 270 202 221 252 232 211 209 244 240 229 222 206 197 222 206 81 72 63 26 4 19 34 51 62 71 77 87 94 100 95 97 105 96 89 84 72 81 102 112 132 143 144 146 149 164 175 164 155 156 162 171 170 170 169 168 172 168 175 165 159 160 158 163 167 183 186 175 189 155 129 140 165 148 144
211 220 248 129 132 165 208 196 225 201 187 187 211 216 189 228 30 287 208 237 236 242 226 228 214 202 75 48 53 52 12 3 5 35 71 87 97 90 89 92 90 88 78 68 75 78 71 79 82 83 86 96 113 127 136 145 155 163 159 164 155 158 167 174 167 164 165 169 170 167 171 161 159 169 173 172 180 190 195 212 137 135 149 155 173 167
217 188 232 180 185 212 209 57 0 343 305 231 210 219 213 211 209 216 229 191 240 242 231 226 230 127 67 52 55 49 29 342 88 146 111 95 97 99 92 80 75 72 71 72 64 66 57 60 62 73 77 81 87 104 117 129 144 156 161 158 155 154 163 169 170 173 170 172 169 183 176 164 170 176 177 167 178 190 189 168 141 145 163 168 170 183
314 217 223 215 216 235 87 86 61 3 289 318 282 233 223 223 229 227 242 202 211 234 280 255 264 113 40 51 58 57 52 84 130 137 112 105 98 98 92 89 80 73 74 70 65 64 65 61 62 66 70 84 95 101 106 112 121 131 135 138 147 156 165 170 172 173 171 174 174 184 192 186 186 189 184 179 185 193 180 168 171 170 176 175 167 184
295 241 215 232 215 142 146 117 119 352 292 231 225 287 244 231 225 244 249 226 213 199 215 211 231 108 84 54 67 79 84 96 124 116 114 107 101 96 93 81 76 72 65 65 62 60 61 68 68 66 64 66 73 76 83 95 109 114 120 126 129 135 146 151 156 163 165 173 177 175 187 197 200 205 200 192 195 188 183 173 177 174 179 178 173 176
213 194 273 215 220 198 191 191 190 135 227 233 234 171 327 333 243 28 325 266 244 224 230 228 232 136 96 91 92 95 92 91 98 101 107 102 99 90 82 76 75 72 68 64 63 60 60 60 59 59 62 64 73 83 80 89 98 106 110 116 119 121 132 133 142 155 160 172 184 186 188 191 196 199 201 203 201 186 183 177 178 178 183 173 177 176
56 359 310 233 220 217 215 209 213 198 197 108 63 53 355 259 199 201 230 220 245 206 227 240 219 86 116 110 92 96 105 99 100 97 95 92 84 84 83 79 73 68 65 65 63 59 54 53 56 60 61 66 67 88 102 99 93 85 82 74 84 111 118 122 136 153 161 167 181 189 197 198 201 204 207 209 207 190 181 179 180 180 187 184 178 173
79 59 36 41 3 8 8 11 27 328 180 195 117 70 12 325 315 272 251 238 235 194 225 235 161 133 126 130 108 103 109 107 103 107 109 103 87 81 82 85 82 77 71 69 67 69 68 61 55 56 57 60 67 76 84 92 95 95 97 96 97 101 108 109 132 149 169 183 189 190 194 198 204 210 215 213 208 192 183 180 176 185 187 189 182 174
100 85 48 71 50 27 7 18 13 347 75 55 73 53 12 343 303 268 229 250 255 238 236 113 131 129 131 123 112 114 111 106 105 103 102 96 91 93 91 89 87 83 79 75 71 68 65 62 58 56 56 58 62 64 73 75 79 84 90 108 111 105 100 105 140 153 176 182 201 218 212 215 222 225 224 219 208 200 194 184 183 191 184 188 191 188
177 166 186 133 84 69 41 45 32 49 51 65 64 53 45 21 17 280 6 356 321 247 264 127 129 116 120 117 113 108 111 102 101 89 84 92 95 96 94 88 83 80 76 72 69 68 66 65 61 57 54 54 54 55 53 56 62 67 78 78 85 90 95 116 134 150 169 177 200 215 237 241 242 242 234 225 224 215 206 207 203 202 197 191 196 196
144 131 160 157 125 107 86 62 49 53 66 73 61 65 75 77 74 68 58 37 36 75 97 113 100 98 114 122 122 115 112 106 98 99 97 93 92 90 88 85 82 79 76 73 71 69 67 66 63 60 57 51 49 49 51 51 49 49 51 61 63 71 76 89 98 151 163 172 180 194 219 227 236 239 234 236 235 235 229 219 212 211 211 209 207 198
251 144 170 154 144 129 119 114 91 70 34 30 25 47 80 92 91 86 81 69 76 76 88 97 97 104 100 119 117 115 117 113 107 97 90 88 89 88 86 84 81 78 75 72 69 67 66 63 60 58 55 54 51 48 48 50 53 49 48 45 49 53 60 85 87 116 142 156 131 161 209 227 243 257 250 232 241 243 242 238 232 234 234 223 209 200
244 146 186 178 167 156 148 132 88 59 24 356 342 11 20 26 77 40 47 1 3 119 117 118 110 119 132 126 125 125 121 112 105 99 95 91 88 86 83 80 76 73 71 68 63 61 60 58 54 51 51 49 48 49 46 46 48 48 49 45 46 47 47 59 67 86 106 108 144 163 207 210 208 231 245 258 253 250 252 253 246 234 232 226 212 194
175 158 181 189 215 196 154 118 104 90 37 335 247 148 108 83 85 87 58 39 28 3 159 176 86 118 133 138 130 124 116 108 103 98 92 86 80 78 76 74 69 62 59 57 55 53 51 52 51 47 42 44 39 38 39 37 41 41 38 45 43 48 53 53 44 43 37 17 348 69 109 272 283 284 283 280 273 276 273 262 248 239 230 221 211 201
235 192 197 190 231 150 147 147 144 186 213 225 67 112 56 136 143 70 58 10 22 12 40 70 118 126 136 136 126 120 110 99 95 86 87 89 85 79 73 66 61 58 49 40 36 35 36 39 40 38 36 35 32 28 28 29 24 25 33 33 39 37 37 47 49 43 40 39 41 15 350 323 287 291 281 269 268 266 264 258 250 248 239 224 209 218
221 210 221 190 226 165 145 147 198 221 226 57 213 158 137 93 102 100 90 54 62 81 108 113 126 137 137 129 118 112 107 103 97 91 79 74 89 91 87 82 74 66 65 60 44 33 29 27 30 28 27 24 22 20 18 21 14 9 19 20 25 25 27 28 37 42 38 35 26 22 19 345 322 286 276 267 260 262 259 252 254 248 238 233 230 228
202 212 177 199 190 108 178 187 213 215 68 110 97 128 122 141 130 114 88 79 94 137 136 129 128 125 124 122 120 118 114 107 93 76 76 72 61 69 75 74 75 74 68 61 61 50 41 32 29 28 21 18 19 21 19 13 5 6 4 6 9 4 11 14 22 31 26 23 20 15 10 0 345 321 292 270 263 258 250 245 238 242 241 241 235 231
347 235 217 185 165 212 210 204 228 91 154 120 125 138 167 155 184 201 176 107 113 144 148 133 129 128 125 122 125 126 122 113 94 79 65 66 65 62 64 68 67 67 68 62 59 55 38 33 33 25 20 24 23 21 13 8 360 358 356 0 353 355 353 1 9 10 8 5 8 3 357 353 342 339 316 309 294 272 264 258 248 240 239 239 241 241
16 323 322 245 200 267 228 217 212 209 233 129 85 106 23 3 359 328 103 115 136 142 145 139 135 135 133 134 137 146 166 141 110 97 73 66 62 65 64 62 60 57 55 53 42 42 46 28 25 38 26 15 24 22 9 356 356 348 353 355 351 351 347 356 359 356 355 353 351 346 348 344 341 333 326 306 295 296 291 278 261 251 243 242 241 239
146 179 60 270 230 202 241 240 231 236 79 48 102 121 44 4 299 307 247 161 146 148 148 144 139 143 143 147 147 170 202 195 117 109 90 74 68 52 51 49 44 44 44 38 29 17 17 14 10 5 13 14 16 10 360 353 348 348 346 349 346 343 342 349 350 348 347 344 340 335 335 337 338 335 326 314 299 294 287 279 271 261 247 237 238 240
107 189 199 191 303 246 239 236 242 39 83 114 90 1 17 336 16 262 225 186 147 148 143 144 141 143 144 145 159 196 323 232 125 100 87 80 73 60 41 37 34 29 30 26 26 9 2 4 3 8 11 10 7 0 354 349 347 344 337 340 337 331 333 339 337 332 329 329 328 325 322 322 326 330 327 318 311 295 284 278 272 259 251 242 239 236
59 12 246 232 221 160 208 243 91 124 92 82 39 14 16 306 272 208 220 108 143 137 141 138 129 128 136 149 185 120 74 64 81 94 82 60 59 53 49 40 32 23 20 17 15 2 359 1 4 2 3 2 357 354 349 346 343 336 335 330 322 325 326 323 317 316 316 312 310 310 313 316 317 321 319 312 309 303 283 269 260 251 240 237 234 232
85 61 154 224 234 235 230 236 244 69 48 4 21 8 354 304 187 236 62 127 124 123 118 115 108 97 91 79 76 85 88 80 79 76 68 56 48 44 28 26 19 14 16 15 9 10 359 351 354 354 354 354 349 347 344 342 336 328 331 322 319 325 322 317 318 314 307 303 302 305 305 307 311 314 310 308 307 307 291 271 257 243 233 232 226 221
20 296 223 145 56 53 207 236 227 239 90 349 12 102 12 18 59 106 123 111 113 108 107 97 90 86 87 87 78 81 83 74 66 59 58 48 34 27 20 15 9 4 4 0 357 13 358 344 347 348 344 343 345 343 338 333 324 320 318 315 316 317 317 315 308 306 305 304 302 299 298 296 298 299 301 303 304 299 293 282 257 237 230 224 220 212
8 275 194 89 359 268 216 219 263 25 60 15 295 202 88 75 98 103 113 113 107 110 105 100 79 72 74 80 88 82 76 79 66 48 40 35 25 16 13 6 5 0 358 355 354 359 345 338 342 338 342 340 344 339 336 328 321 321 317 310 316 315 309 303 300 298 293 289 286 286 286 287 284 283 283 287 293 293 287 279 269 250 230 223 217 208
27 25 353 334 51 5 28 60 94 101 72 71 78 93 103 103 99 101 95 105 106 88 83 91 88 78 65 74 77 70 80 61 53 47 30 16 6 8 360 360 358 355 349 348 347 353 339 341 338 337 340 344 342 340 337 334 324 324 318 320 323 315 310 307 304 297 290 284 280 277 276 274 275 276 275 272 270 275 278 275 264 252 240 227 222 218
62 25 11 68 85 92 71 75 102 115 97 83 80 87 97 91 81 92 96 93 74 67 63 79 82 77 67 44 55 72 55 41 35 27 12 3 356 1 351 349 353 350 347 342 345 350 337 337 337 341 344 341 343 338 331 322 315 309 310 311 307 302 300 301 302 301 297 295 291 286 280 274 270 266 264 263 258 257 264 269 267 257 242 231 227 223
61 172 238 112 143 198 89 120 106 107 113 95 89 84 70 61 60 61 71 70 75 73 72 65 64 65 54 50 47 45 55 35 27 17 1 350 349 346 345 347 347 346 343 343 346 342 338 342 341 348 345 339 339 346 334 329 321 318 321 322 317 313 307 302 294 289 288 289 290 285 275 270 268 266 260 251 248 249 249 247 248 249 249 240 231 228
107 253 111 107 134 328 125 136 122 99 111 125 121 105 93 82 74 67 71 76 81 81 85 89 96 83 80 75 65 58 72 64 22 11 349 340 336 334 339 345 340 339 340 341 340 345 336 341 342 340 340 341 340 337 333 328 326 323 321 318 315 311 308 303 302 300 296 291 286 281 286 284 273 267 265 263 257 253 245 234 234 240 241 245 240 236
77 234 128 202 124 102 120 144 139 142 141 138 139 85 91 112 117 122 122 130 130 119 117 111 86 88 83 93 80 43 20 41 22 359 339 331 334 338 346 337 337 333 335 336 343 343 336 341 338 336 333 332 329 328 323 321 317 315 314 311 310 306 300 295 291 287 287 288 286 284 280 277 277 272 267 262 258 250 243 233 230 232 237 234 246 268
222 179 110 185 150 170 169 167 168 169 172 163 163 144 122 106 116 118 132 119 115 105 102 102 97 75 73 50 21 13 3 360 2 353 339 335 339 342 332 334 329 333 331 338 336 327 325 334 328 325 322 324 325 320 318 314 313 313 313 311 307 303 297 292 288 284 281 280 282 282 280 275 271 267 264 261 257 258 245 51 357 324 231 207 97 75
300 69 222 234 296 190 118 144 170 13 47 113 138 136 132 137 143 151 135 118 87 68 63 56 106 138 96 44 22 6 2 358 354 352 337 339 336 333 334 329 327 328 327 330 326 328 331 321 321 322 323 323 324 320 317 314 312 311 310 309 305 301 296 293 289 283 278 275 271 276 281 280 278 274 271 267 261 251 250 227 179 77 348 318 124 154